4XDAR LLBG-LLBG

Flight info

Callsign 4XDAR
Flight time 0h 27m
Altitude 1200
Route CVFR
Aircraft SR22/L-SDE/C

Departure

Time 2026-04-30 13:10
Airport Ben Gurion International Airport (LLBG)

Arrival

Time 2026-04-30 13:38
Airport Ben Gurion International Airport (LLBG)
Time Latitude Longitude Altitude Speed Heading
2026-04-30 13:00 32.00737 34.89775 115 ft 0 kts 119°
2026-04-30 13:04 32.00740 34.89770 115 ft 6 kts 302°
2026-04-30 13:04 32.00763 34.89733 115 ft 16 kts 318°
2026-04-30 13:05 32.00849 34.89704 115 ft 17 kts 293°
2026-04-30 13:05 32.00899 34.89596 115 ft 10 kts 300°
2026-04-30 13:05 32.00908 34.89577 115 ft 0 kts 299°
2026-04-30 13:06 32.00927 34.89534 117 ft 17 kts 297°
2026-04-30 13:06 32.01002 34.89376 114 ft 22 kts 297°
2026-04-30 13:06 32.01098 34.89334 115 ft 20 kts 33°
2026-04-30 13:06 32.01236 34.89419 115 ft 24 kts 27°
2026-04-30 13:07 32.01393 34.89521 113 ft 27 kts 27°
2026-04-30 13:07 32.01562 34.89629 115 ft 27 kts 28°
2026-04-30 13:07 32.01669 34.89697 114 ft 0 kts 29°
2026-04-30 13:08 32.01670 34.89698 114 ft 4 kts 30°
2026-04-30 13:08 32.01749 34.89749 113 ft 18 kts 27°
2026-04-30 13:08 32.01842 34.89720 113 ft 11 kts 266°
2026-04-30 13:08 32.01841 34.89705 113 ft 0 kts 260°
2026-04-30 13:09 32.01825 34.89608 112 ft 48 kts 261°
2026-04-30 13:09 32.01718 34.88967 187 ft 97 kts 256°
2026-04-30 13:10 32.01571 34.88181 519 ft 99 kts 256°
2026-04-30 13:10 32.01417 34.87445 806 ft 102 kts 254°
2026-04-30 13:10 32.01419 34.86603 1082 ft 108 kts 311°
2026-04-30 13:10 32.02152 34.86400 1282 ft 115 kts
2026-04-30 13:11 32.02785 34.87000 1268 ft 137 kts 66°
2026-04-30 13:11 32.03010 34.88195 1247 ft 157 kts 78°
2026-04-30 13:11 32.03188 34.89487 1316 ft 163 kts 83°
2026-04-30 13:11 32.03352 34.90827 1310 ft 156 kts 97°
2026-04-30 13:12 32.02597 34.91377 798 ft 137 kts 190°
2026-04-30 13:12 32.02014 34.90753 386 ft 111 kts 257°
2026-04-30 13:12 32.01889 34.89972 219 ft 87 kts 261°
2026-04-30 13:13 32.01681 34.88660 116 ft 72 kts 260°
2026-04-30 13:13 32.01561 34.87915 239 ft 105 kts 258°
2026-04-30 13:13 32.02020 34.86526 930 ft 121 kts 358°
2026-04-30 13:14 32.02611 34.87122 1245 ft 127 kts 73°
2026-04-30 13:14 32.02875 34.88111 1528 ft 135 kts 70°
2026-04-30 13:14 32.02932 34.90331 1296 ft 134 kts 114°
2026-04-30 13:15 32.02292 34.91201 1388 ft 147 kts 149°
2026-04-30 13:15 32.00169 34.91355 1131 ft 148 kts 194°
2026-04-30 13:15 31.99651 34.90987 837 ft 120 kts 230°
2026-04-30 13:16 31.99751 34.89882 234 ft 104 kts 301°
2026-04-30 13:16 31.99988 34.89446 142 ft 90 kts 301°
2026-04-30 13:16 32.00285 34.88871 114 ft 88 kts 300°
2026-04-30 13:17 32.00920 34.87241 653 ft 120 kts 290°
2026-04-30 13:17 32.00993 34.86268 934 ft 130 kts 232°
2026-04-30 13:17 31.99381 34.86355 1246 ft 149 kts 119°
2026-04-30 13:18 31.98867 34.87486 1256 ft 161 kts 123°
2026-04-30 13:18 31.97600 34.89654 1534 ft 159 kts 131°
2026-04-30 13:18 31.96927 34.90665 1559 ft 145 kts 125°
2026-04-30 13:19 31.96470 34.91684 1462 ft 140 kts 111°
2026-04-30 13:19 31.96947 34.92403 1190 ft 145 kts
2026-04-30 13:19 31.97823 34.92156 956 ft 123 kts 329°
2026-04-30 13:19 31.98453 34.91694 729 ft 100 kts 326°
2026-04-30 13:20 31.98963 34.91179 493 ft 94 kts 313°
2026-04-30 13:20 31.99368 34.90584 367 ft 94 kts 303°
2026-04-30 13:20 31.99708 34.89948 244 ft 90 kts 301°
2026-04-30 13:20 32.00028 34.89353 118 ft 78 kts 302°
2026-04-30 13:21 32.00298 34.88837 115 ft 88 kts 299°
2026-04-30 13:21 32.00630 34.88105 355 ft 110 kts 295°
2026-04-30 13:21 32.00945 34.87223 642 ft 123 kts 289°
2026-04-30 13:22 32.00002 34.85781 1213 ft 129 kts 192°
2026-04-30 13:22 31.99342 34.86433 1200 ft 135 kts 117°
2026-04-30 13:22 31.98558 34.88458 1295 ft 138 kts 111°
2026-04-30 13:23 31.98206 34.89533 1298 ft 141 kts 111°
2026-04-30 13:23 31.98550 34.91312 854 ft 129 kts
2026-04-30 13:24 31.99588 34.90177 274 ft 92 kts 302°
2026-04-30 13:24 32.00165 34.89100 112 ft 63 kts 302°
2026-04-30 13:25 32.00747 34.87654 581 ft 113 kts 297°
2026-04-30 13:25 32.00378 34.85997 972 ft 141 kts 207°
2026-04-30 13:26 31.98431 34.88403 1324 ft 150 kts 112°
2026-04-30 13:26 31.97890 34.90770 1205 ft 148 kts 100°
2026-04-30 13:27 31.98880 34.91609 828 ft 107 kts 304°
2026-04-30 13:28 31.99911 34.89584 190 ft 80 kts 302°
2026-04-30 13:28 32.00456 34.88530 287 ft 90 kts 303°
2026-04-30 13:28 32.00878 34.87926 646 ft 104 kts 306°
2026-04-30 13:29 32.01475 34.86106 1160 ft 131 kts 278°
2026-04-30 13:29 32.01813 34.83818 1439 ft 155 kts 283°
2026-04-30 13:30 32.00186 34.84140 1177 ft 146 kts 121°
2026-04-30 13:31 31.99320 34.86198 1182 ft 138 kts 113°
2026-04-30 13:31 31.98249 34.89256 1259 ft 129 kts 112°
2026-04-30 13:32 31.97675 34.91242 1316 ft 130 kts 105°
2026-04-30 13:32 31.97977 34.93032 1081 ft 141 kts 360°
2026-04-30 13:33 31.98875 34.91650 769 ft 101 kts 296°
2026-04-30 13:33 31.99528 34.90305 313 ft 90 kts 300°
2026-04-30 13:34 31.99863 34.89693 197 ft 90 kts 297°
2026-04-30 13:34 32.00820 34.87724 493 ft 115 kts 295°
2026-04-30 13:35 32.00956 34.86814 840 ft 121 kts 243°
2026-04-30 13:35 31.99369 34.86730 1232 ft 136 kts 142°
2026-04-30 13:36 31.98026 34.88572 1373 ft 160 kts 118°
2026-04-30 13:36 31.97567 34.89767 1396 ft 149 kts 106°
2026-04-30 13:36 31.98823 34.90554 422 ft 110 kts 331°
2026-04-30 13:37 31.99434 34.90203 358 ft 95 kts 324°
2026-04-30 13:37 32.00178 34.89071 118 ft 79 kts 303°
2026-04-30 13:38 32.00579 34.88302 116 ft 44 kts 301°
2026-04-30 13:38 32.00724 34.88051 114 ft 23 kts 329°
2026-04-30 13:38 32.00889 34.88256 114 ft 24 kts 122°
2026-04-30 13:39 32.00687 34.88637 114 ft 30 kts 123°
2026-04-30 13:39 32.00488 34.89019 114 ft 0 kts 124°
2026-04-30 13:40 32.00440 34.89112 114 ft 34 kts 121°
2026-04-30 13:40 32.00343 34.89304 114 ft 24 kts 121°
2026-04-30 13:40 32.00245 34.89490 113 ft 20 kts 123°
2026-04-30 13:40 32.00286 34.89596 115 ft 25 kts 18°
2026-04-30 13:41 32.00466 34.89657 115 ft 24 kts 16°
2026-04-30 13:41 32.00586 34.89626 113 ft 18 kts 310°
2026-04-30 13:41 32.00624 34.89670 113 ft 11 kts 122°
2026-04-30 13:41 32.00601 34.89719 114 ft 0 kts 116°